When you browse on this site, cookies collect data to enhance your experience and personalize the content and advertising you see.
Visit our Privacy Policy to learn more. By continuing to use the site, you agree to this use of cookies and data.
  • In Austria
  • List of Countries
  • For 7 days
  • Water Temperature
  • Weather Map
  • News
  • Weather Widgets
  • user-avatar
    Login

    Hourly Weather Bihać

    Today, 24 October, Thursday

    Time Temperature Precipitation Wind Pressure Humidity
    00:00 +14°C° 0 mm 1 mps 712 mmHg 62%
    01:00 +14°C° 0 mm 1 mps 712 mmHg 62%
    02:00 +14°C° 0 mm 1 mps 711 mmHg 63%
    03:00 +14°C° 0 mm 1 mps 711 mmHg 65%
    04:00 +14°C° 0 mm 1 mps 711 mmHg 66%
    05:00 +14°C° 0 mm 1 mps 711 mmHg 65%
    06:00 +14°C° 0 mm 1 mps 711 mmHg 64%
    07:00 +14°C° 0 mm 1 mps 711 mmHg 64%
    08:00 +16°C° 0 mm 2 mps 711 mmHg 58%
    09:00 +18°C° 0 mm 2 mps 711 mmHg 52%
    10:00 +21°C° 0 mm 2 mps 712 mmHg 46%
    11:00 +21°C° 0 mm 2 mps 711 mmHg 44%
    12:00 +23°C° 0 mm 2 mps 711 mmHg 43%
    13:00 +22°C° 0 mm 3 mps 711 mmHg 41%
    14:00 +21°C° 0 mm 2 mps 710 mmHg 47%
    15:00 +20°C° 0 mm 2 mps 710 mmHg 53%
    16:00 +20°C° 0 mm 1 mps 709 mmHg 59%
    17:00 +19°C° 0 mm 1 mps 709 mmHg 63%
    18:00 +16°C° 0 mm 1 mps 709 mmHg 67%
    19:00 +14°C° 0 mm 1 mps 709 mmHg 72%
    20:00 +14°C° 0 mm 1 mps 709 mmHg 71%
    21:00 +14°C° 0 mm 1 mps 709 mmHg 70%
    22:00 +14°C° 0 mm 1 mps 710 mmHg 69%
    23:00 +13°C° 0 mm 1 mps 710 mmHg 67%

    Tomorrow, 25 October, Friday

    Time Temperature Precipitation Wind Pressure Humidity
    00:00 +13°C° 0 mm 1 mps 710 mmHg 65%
    01:00 +13°C° 0 mm 1 mps 710 mmHg 64%
    02:00 +13°C° 0 mm 1 mps 710 mmHg 62%
    03:00 +13°C° 0 mm 1 mps 710 mmHg 60%
    04:00 +13°C° 0 mm 1 mps 710 mmHg 58%
    05:00 +13°C° 0 mm 1 mps 710 mmHg 58%
    06:00 +13°C° 0 mm 1 mps 710 mmHg 58%
    07:00 +13°C° 0 mm 1 mps 711 mmHg 57%
    08:00 +15°C° 0 mm 1 mps 711 mmHg 52%
    09:00 +18°C° 0 mm 1 mps 712 mmHg 47%
    10:00 +21°C° 0 mm 1 mps 713 mmHg 43%
    11:00 +21°C° 0 mm 1 mps 713 mmHg 41%
    12:00 +22°C° 0 mm 1 mps 713 mmHg 40%
    13:00 +21°C° 0 mm 2 mps 713 mmHg 39%
    14:00 +20°C° 0 mm 2 mps 713 mmHg 47%
    15:00 +19°C° 0 mm 2 mps 713 mmHg 56%
    16:00 +18°C° 0 mm 2 mps 713 mmHg 64%
    17:00 +16°C° 0 mm 2 mps 713 mmHg 71%
    18:00 +14°C° 0 mm 2 mps 713 mmHg 77%
    19:00 +12°C° 0 mm 3 mps 713 mmHg 84%
    20:00 +12°C° 0 mm 3 mps 713 mmHg 86%
    21:00 +12°C° 0 mm 2 mps 714 mmHg 87%
    22:00 +12°C° 0 mm 2 mps 714 mmHg 88%
    23:00 +12°C° 0 mm 2 mps 714 mmHg 89%

    Day after tomorrow, 26 October, Saturday

    Time Temperature Precipitation Wind Pressure Humidity
    00:00 +12°C° 0 mm 2 mps 714 mmHg 90%
    01:00 +10°C° 0 mm 2 mps 714 mmHg 91%
    02:00 +10°C° 0 mm 2 mps 714 mmHg 90%
    03:00 +10°C° 0 mm 2 mps 714 mmHg 90%
    04:00 +10°C° 0 mm 2 mps 714 mmHg 90%
    05:00 +10°C° 0 mm 2 mps 714 mmHg 90%
    06:00 +10°C° 0 mm 2 mps 714 mmHg 89%
    07:00 +10°C° 0 mm 2 mps 714 mmHg 89%
    08:00 +13°C° 0 mm 1 mps 714 mmHg 79%
    09:00 +16°C° 0 mm 1 mps 715 mmHg 69%
    10:00 +19°C° 0 mm 1 mps 716 mmHg 60%
    11:00 +21°C° 0 mm 1 mps 716 mmHg 54%
    12:00 +22°C° 0 mm 1 mps 716 mmHg 48%
    13:00 +22°C° 0 mm 0 mps 716 mmHg 42%
    14:00 +20°C° 0 mm 0 mps 715 mmHg 48%
    15:00 +21°C° 0 mm 1 mps 715 mmHg 54%
    16:00 +20°C° 0 mm 1 mps 714 mmHg 60%
    17:00 +18°C° 0 mm 1 mps 714 mmHg 62%
    18:00 +16°C° 0 mm 1 mps 714 mmHg 64%
    19:00 +13°C° 0 mm 0 mps 714 mmHg 65%
    20:00 +14°C° 0 mm 1 mps 714 mmHg 64%
    21:00 +14°C° 0 mm 1 mps 714 mmHg 64%
    22:00 +13°C° 0 mm 1 mps 714 mmHg 63%
    23:00 +13°C° 0 mm 1 mps 714 mmHg 61%

    27 October, Sunday

    Time Temperature Precipitation Wind Pressure Humidity
    00:00 +13°C° 0 mm 1 mps 714 mmHg 59%
    01:00 +11°C° 0 mm 0 mps 714 mmHg 57%
    02:00 +12°C° 0 mm 1 mps 714 mmHg 55%
    03:00 +12°C° 0 mm 1 mps 713 mmHg 54%
    04:00 +12°C° 0 mm 1 mps 713 mmHg 52%
    05:00 +12°C° 0 mm 1 mps 713 mmHg 51%
    06:00 +12°C° 0 mm 1 mps 713 mmHg 49%
    07:00 +12°C° 0 mm 1 mps 713 mmHg 48%
    08:00 +15°C° 0 mm 1 mps 714 mmHg 44%
    09:00 +16°C° 0 mm 0 mps 714 mmHg 39%
    10:00 +19°C° 0 mm 0 mps 715 mmHg 35%
    11:00 +22°C° 0 mm 1 mps 714 mmHg 34%
    12:00 +22°C° 0 mm 1 mps 714 mmHg 32%
    13:00 +23°C° 0 mm 1 mps 714 mmHg 31%
    14:00 +22°C° 0 mm 1 mps 713 mmHg 38%
    15:00 +20°C° 0 mm 1 mps 713 mmHg 45%
    16:00 +19°C° 0 mm 1 mps 712 mmHg 52%
    17:00 +16°C° 0 mm 1 mps 712 mmHg 53%
    18:00 +15°C° 0 mm 1 mps 712 mmHg 55%
    19:00 +13°C° 0 mm 1 mps 712 mmHg 56%
    20:00 +13°C° 0 mm 1 mps 712 mmHg 54%
    21:00 +12°C° 0 mm 1 mps 712 mmHg 52%
    22:00 +12°C° 0 mm 1 mps 711 mmHg 50%
    23:00 +12°C° 0 mm 1 mps 711 mmHg 48%

    28 October, Monday

    Time Temperature Precipitation Wind Pressure Humidity
    00:00 +12°C° 0 mm 1 mps 711 mmHg 46%
    01:00 +11°C° 0 mm 1 mps 711 mmHg 43%
    02:00 +11°C° 0 mm 1 mps 711 mmHg 42%
    03:00 +11°C° 0 mm 1 mps 710 mmHg 40%
    04:00 +11°C° 0 mm 1 mps 710 mmHg 39%
    05:00 +11°C° 0 mm 1 mps 710 mmHg 39%
    06:00 +11°C° 0 mm 1 mps 710 mmHg 40%
    07:00 +10°C° 0 mm 0 mps 709 mmHg 40%
    08:00 +12°C° 0 mm 0 mps 710 mmHg 38%
    09:00 +15°C° 0 mm 0 mps 710 mmHg 36%
    10:00 +18°C° 0 mm 0 mps 711 mmHg 35%
    11:00 +20°C° 0 mm 1 mps 710 mmHg 35%
    12:00 +21°C° 0 mm 1 mps 710 mmHg 36%
    13:00 +22°C° 0 mm 1 mps 710 mmHg 37%
    14:00 +21°C° 0 mm 1 mps 710 mmHg 43%
    15:00 +19°C° 0 mm 1 mps 709 mmHg 50%
    16:00 +18°C° 0 mm 1 mps 709 mmHg 57%
    17:00 +15°C° 0 mm 0 mps 709 mmHg 60%
    18:00 +13°C° 0 mm 0 mps 709 mmHg 63%
    19:00 +12°C° 0 mm 0 mps 708 mmHg 66%
    20:00 +11°C° 0 mm 0 mps 709 mmHg 65%
    21:00 +11°C° 0 mm 0 mps 709 mmHg 63%
    22:00 +11°C° 0 mm 0 mps 709 mmHg 62%
    23:00 +11°C° 0 mm 0 mps 709 mmHg 62%

    29 October, Tuesday

    Time Temperature Precipitation Wind Pressure Humidity
    00:00 +10°C° 0 mm 0 mps 708 mmHg 62%
    01:00 +10°C° 0 mm 0 mps 708 mmHg 62%
    02:00 +10°C° 0 mm 0 mps 708 mmHg 63%
    03:00 +10°C° 0 mm 0 mps 708 mmHg 64%
    04:00 +11°C° 0 mm 1 mps 708 mmHg 65%
    05:00 +11°C° 0 mm 1 mps 708 mmHg 66%
    06:00 +11°C° 0 mm 1 mps 708 mmHg 67%
    07:00 +11°C° 0 mm 1 mps 708 mmHg 68%
    08:00 +13°C° 0 mm 1 mps 708 mmHg 64%
    09:00 +15°C° 0 mm 1 mps 709 mmHg 59%
    10:00 +19°C° 0 mm 1 mps 709 mmHg 54%
    11:00 +19°C° 0 mm 1 mps 709 mmHg 53%
    12:00 +19°C° 0 mm 2 mps 709 mmHg 52%
    13:00 +19°C° 0 mm 2 mps 709 mmHg 50%
    14:00 +18°C° 0 mm 2 mps 709 mmHg 56%
    15:00 +18°C° 0 mm 1 mps 709 mmHg 61%
    16:00 +16°C° 0 mm 1 mps 708 mmHg 66%
    17:00 +15°C° 0 mm 1 mps 708 mmHg 71%
    18:00 +14°C° 0 mm 1 mps 708 mmHg 75%
    19:00 +12°C° 0 mm 1 mps 708 mmHg 80%
    20:00 +12°C° 0 mm 1 mps 709 mmHg 81%
    21:00 +12°C° 0 mm 1 mps 709 mmHg 81%
    22:00 +12°C° 0 mm 1 mps 709 mmHg 82%
    23:00 +11°C° 0 mm 1 mps 709 mmHg 83%
    Show more